Artesia, NM

10:50 PM MST on February 10, 2016 (GMT -0700)
Artesia Municipal

Weather History for KATS - May, 2013

Change the Weather History Date:

Tuesday, May 21, 2013

  Actual Average Record
Temperature  
Mean Temperature 71 °F -  
Max Temperature 82 °F 86 °F 100 °F (2005)
Min Temperature 60 °F 52 °F 37 °F (1974)
Cooling Degree Days 6    
Growing Degree Days 21 (Base 50)    
Moisture  
Dew Point 33 °F    
Average Humidity 24    
Maximum Humidity 40    
Minimum Humidity 11    
Precipitation  
Precipitation 0.00 in - - ()
Sea Level Pressure  
Sea Level Pressure 29.92 in    
Wind  
Wind Speed 15 mph (NNE)    
Max Wind Speed 26 mph    
Max Gust Speed 37 mph    
Visibility 10 miles    
Events      
Averages and records for this station are not official NWS values.
T = Trace of Precipitation, MM = Missing Value Source: NWS Daily Summary

Daily Weather History Graph

Daily Weather History Graph

Search for Another Location

Airport or City:

Trip Planner

Search our weather history database for the weather conditions in past years. The results will help you decide how hot, cold, wet, or windy it might be!

Date:

Astronomy

May. 21, 2013 Rise Set
Actual Time 5:54 AM MDT 7:54 PM MDT
Civil Twilight 5:27 AM MDT 8:22 PM MDT
Nautical Twilight 4:53 AM MDT 8:55 PM MDT
Astronomical Twilight 4:18 AM MDT 9:31 PM MDT
Moon 4:21 PM MDT (5/21) 3:11 AM MDT (5/21)
Length of Visible Light 14h 54m
Length of Day
13h 59m
Waxing Gibbous, 84% of the Moon is Illuminated
May 21
Waxing Gibbous
May 24
Full
May 31
Last Quarter
Jun 8
New
Jun 16
First Quarter

Hourly Weather History & Observations

Time (MDT) Temp. Dew Point Humidity Pressure Visibility Wind Dir Wind Speed Gust Speed Precip Events Conditions
12:15 AM 71.6 °F 14.0 °F 11% 29.84 in 10.0 mi NNE 23.0 mph - N/A   Clear
12:35 AM 71.6 °F 17.6 °F 13% 29.87 in 10.0 mi NNW 20.7 mph 26.5 mph N/A   Clear
12:55 AM 71.6 °F 24.8 °F 17% 29.87 in 9.0 mi NNW 26.5 mph 36.8 mph N/A   Clear
1:15 AM 69.8 °F 28.4 °F 21% 29.86 in 10.0 mi North 26.5 mph 33.4 mph N/A   Clear
1:35 AM 69.8 °F 26.6 °F 20% 29.87 in 10.0 mi NNW 17.3 mph 26.5 mph N/A   Clear
1:55 AM 68.0 °F 26.6 °F 21% 29.86 in 10.0 mi North 24.2 mph 29.9 mph N/A   Clear
2:15 AM 68.0 °F 26.6 °F 21% 29.88 in 10.0 mi NNW 19.6 mph - N/A   Clear
2:35 AM 68.0 °F 26.6 °F 21% 29.88 in 10.0 mi North 17.3 mph - N/A   Clear
2:55 AM 68.0 °F 26.6 °F 21% 29.87 in 10.0 mi North 17.3 mph 21.9 mph N/A   Clear
3:15 AM 68.0 °F 26.6 °F 21% 29.88 in 10.0 mi North 15.0 mph - N/A   Clear
3:35 AM 66.2 °F 26.6 °F 23% 29.88 in 10.0 mi North 11.5 mph - N/A   Clear
3:55 AM 66.2 °F 26.6 °F 23% 29.89 in 10.0 mi North 12.7 mph - N/A   Clear
4:15 AM 68.0 °F 28.4 °F 23% 29.89 in 10.0 mi NNE 16.1 mph 20.7 mph N/A   Clear
4:35 AM 66.2 °F 35.6 °F 32% 29.90 in 9.0 mi NE 12.7 mph - N/A   Clear
4:55 AM 64.4 °F 35.6 °F 34% 29.93 in 10.0 mi North 13.8 mph - N/A   Clear
5:15 AM 64.4 °F 32.0 °F 30% 29.94 in 10.0 mi NNW 11.5 mph - N/A   Clear
5:35 AM 64.4 °F 35.6 °F 34% 29.94 in 10.0 mi North 9.2 mph - N/A   Clear
5:55 AM 60.8 °F 33.8 °F 36% 29.95 in 10.0 mi North 9.2 mph - N/A   Clear
6:15 AM 60.8 °F 35.6 °F 39% 29.95 in 10.0 mi NW 12.7 mph - N/A   Clear
6:35 AM 62.6 °F 28.4 °F 27% 29.96 in 10.0 mi NW 13.8 mph - N/A   Clear
6:55 AM 62.6 °F 30.2 °F 30% 29.97 in 10.0 mi NW 16.1 mph - N/A   Clear
7:15 AM 64.4 °F 33.8 °F 32% 29.98 in 10.0 mi NNW 16.1 mph - N/A   Clear
7:35 AM 64.4 °F 37.4 °F 37% 29.98 in 10.0 mi North 16.1 mph 20.7 mph N/A   Clear
7:55 AM 66.2 °F 37.4 °F 35% 29.99 in 10.0 mi North 17.3 mph - N/A   Clear
8:15 AM 66.2 °F 37.4 °F 35% 29.99 in 10.0 mi NNW 17.3 mph 21.9 mph N/A   Clear
8:35 AM 66.2 °F 39.2 °F 37% 30.00 in 10.0 mi North 18.4 mph 21.9 mph N/A   Clear
8:55 AM 66.2 °F 41.0 °F 40% 30.01 in 10.0 mi NNE 17.3 mph - N/A   Clear
9:15 AM 68.0 °F 41.0 °F 37% 30.01 in 10.0 mi North 12.7 mph 21.9 mph N/A   Clear
9:35 AM 68.0 °F 41.0 °F 37% 30.01 in 10.0 mi NNE 13.8 mph - N/A   Clear
9:55 AM 68.0 °F 41.0 °F 37% 30.01 in 10.0 mi NNE 11.5 mph - N/A   Clear
10:15 AM 68.0 °F 41.0 °F 37% 30.00 in 10.0 mi North 6.9 mph - N/A   Clear
10:35 AM 68.0 °F 41.0 °F 37% 30.01 in 10.0 mi NE 8.1 mph - N/A   Clear
10:55 AM 71.6 °F 39.2 °F 31% 30.01 in 10.0 mi NNE 6.9 mph - N/A   Clear
11:15 AM 71.6 °F 39.2 °F 31% 30.01 in 10.0 mi North 5.8 mph - N/A   Clear
11:35 AM 73.4 °F 37.4 °F 27% 30.00 in 10.0 mi WNW 6.9 mph - N/A   Clear
11:55 AM 73.4 °F 37.4 °F 27% 30.00 in 10.0 mi NW 5.8 mph 16.1 mph N/A   Clear
12:15 PM 75.2 °F 39.2 °F 27% 29.98 in 10.0 mi NE 8.1 mph - N/A   Clear
12:35 PM 73.4 °F 37.4 °F 27% 29.98 in 10.0 mi WNW 5.8 mph - N/A   Clear
12:55 PM 75.2 °F 37.4 °F 25% 29.97 in 10.0 mi ENE 4.6 mph - N/A   Clear
1:15 PM 75.2 °F 37.4 °F 25% 29.96 in 10.0 mi North 5.8 mph 17.3 mph N/A   Clear
1:35 PM 77.0 °F 35.6 °F 22% 29.96 in 10.0 mi North 10.4 mph - N/A   Clear
1:55 PM 77.0 °F 35.6 °F 22% 29.95 in 10.0 mi West 5.8 mph - N/A   Clear
2:15 PM 77.0 °F 35.6 °F 22% 29.94 in 10.0 mi North 4.6 mph - N/A   Clear
2:35 PM 78.8 °F 35.6 °F 21% 29.93 in 10.0 mi NNW 5.8 mph - N/A   Clear
2:55 PM 80.6 °F 35.6 °F 20% 29.92 in 10.0 mi NW 4.6 mph - N/A   Clear
3:15 PM 80.6 °F 33.8 °F 18% 29.91 in 10.0 mi East 5.8 mph - N/A   Clear
3:35 PM 80.6 °F 35.6 °F 20% 29.90 in 10.0 mi SE 3.5 mph - N/A   Clear
3:55 PM 82.4 °F 33.8 °F 17% 29.89 in 10.0 mi ENE 4.6 mph - N/A   Clear
4:15 PM 82.4 °F 33.8 °F 17% 29.88 in 10.0 mi ESE 8.1 mph - N/A   Clear
4:35 PM 82.4 °F 33.8 °F 17% 29.87 in 10.0 mi SE 6.9 mph 18.4 mph N/A   Clear
4:55 PM 82.4 °F 32.0 °F 16% 29.86 in 10.0 mi ENE 5.8 mph - N/A   Clear
5:15 PM 82.4 °F 32.0 °F 16% 29.85 in 10.0 mi Calm Calm - N/A   Clear
5:35 PM 82.4 °F 32.0 °F 16% 29.84 in 10.0 mi ENE 6.9 mph - N/A   Clear
5:55 PM 82.4 °F 32.0 °F 16% 29.84 in 10.0 mi SE 6.9 mph - N/A   Clear
6:15 PM 82.4 °F 32.0 °F 16% 29.84 in 10.0 mi SSE 5.8 mph - N/A   Clear
6:35 PM 82.4 °F 32.0 °F 16% 29.83 in 10.0 mi ESE 15.0 mph - N/A   Clear
6:55 PM 82.4 °F 32.0 °F 16% 29.84 in 10.0 mi SE 15.0 mph - N/A   Clear
7:15 PM 82.4 °F 32.0 °F 16% 29.84 in 10.0 mi SE 11.5 mph - N/A   Clear
7:35 PM 80.6 °F 32.0 °F 17% 29.85 in 10.0 mi ESE 5.8 mph - N/A   Clear
7:55 PM 80.6 °F 32.0 °F 17% 29.85 in 10.0 mi ESE 8.1 mph - N/A   Clear
8:15 PM 77.0 °F 32.0 °F 19% 29.86 in 10.0 mi SE 9.2 mph - N/A   Clear
8:35 PM 77.0 °F 32.0 °F 19% 29.86 in 10.0 mi ESE 6.9 mph - N/A   Clear
8:55 PM 75.2 °F 30.2 °F 19% 29.87 in 10.0 mi East 4.6 mph - N/A   Clear
9:15 PM 75.2 °F 28.4 °F 18% 29.87 in 10.0 mi SE 12.7 mph - N/A   Clear
9:35 PM 73.4 °F 28.4 °F 19% 29.87 in 10.0 mi SE 11.5 mph - N/A   Clear
9:55 PM 71.6 °F 28.4 °F 20% 29.88 in 10.0 mi SE 8.1 mph - N/A   Clear
10:15 PM 69.8 °F 26.6 °F 20% 29.89 in 10.0 mi SSE 8.1 mph - N/A   Clear
10:35 PM 69.8 °F 28.4 °F 21% 29.89 in 10.0 mi SSE 9.2 mph - N/A   Clear
10:55 PM 71.6 °F 28.4 °F 20% 29.89 in 10.0 mi SSE 11.5 mph 24.2 mph N/A   Clear
11:15 PM 71.6 °F 28.4 °F 20% 29.89 in 10.0 mi SSE 12.7 mph - N/A   Clear
11:35 PM 68.0 °F 28.4 °F 23% 29.89 in 10.0 mi SSE 13.8 mph - N/A   Clear
11:55 PM 68.0 °F 28.4 °F 23% 29.89 in 10.0 mi South 12.7 mph - N/A   Clear